This demonstration page uses our WeatherBlox Daily Observations layout. Learn more.

Left ArrowRight Arrow

Hourly Observations for January 26, 2022

Temp ( °F °C ) Dew Point ( °F °C ) Humidity (%) Winds ( mph kmh ) Pressure ( in mb ) Visibility ( mi km ) Precip ( " mm )
12:53 am 00:53 Clear 11 -11.7 -1 -18.3 58 58 NW 9 15 30.42 1030 10 16 0.00 0.00
1:53 am 01:53 Clear 9 -12.8 -1 -18.3 64 64 NW 6 9 30.42 1030 10 16 0.00 0.00
2:53 am 02:53 Clear 9 -12.8 -2 -18.9 61 61 NW 10 17 30.45 1031 10 16 0.00 0.00
3:53 am 03:53 Clear 6 -14.4 -3 -19.4 66 66 NW 8 13 30.46 1032 10 16 0.00 0.00
4:53 am 04:53 Clear 7 -13.9 -3 -19.4 63 63 NW 8 13 30.48 1032 10 16 0.00 0.00
5:53 am 05:53 Clear 5 -15 -3 -19.4 69 69 WNW 7 11 30.50 1033 10 16 0.00 0.00
6:53 am 06:53 Clear 4 -15.6 -4 -20 69 69 WNW 7 11 30.53 1034 10 16 0.00 0.00
7:53 am 07:53 Sunny 3 -16.1 -3 -19.4 76 76 W 3 6 30.54 1034 10 16 0.00 0.00
8:53 am 08:53 Sunny 6 -14.4 -2 -18.9 69 69 NW 5 7 30.56 1035 10 16 0.00 0.00
9:53 am 09:53 Sunny 9 -12.8 -1 -18.3 64 64 VRB 3 6 30.57 1035 10 16 0.00 0.00
10:53 am 10:53 Sunny 12 -11.1 0 -17.8 58 58 Calm 30.57 1035 10 16 0.00 0.00
11:53 am 11:53 Sunny 15 -9.4 2 -16.7 56 56 Calm 30.56 1035 10 16 0.00 0.00
12:53 pm 12:53 Sunny 19 -7.2 2 -16.7 47 47 E 6 9 30.53 1034 10 16 0.00 0.00
1:53 pm 13:53 Sunny 20 -6.7 -1 -18.3 40 40 E 6 9 30.50 1033 10 16 0.00 0.00
2:53 pm 14:53 Sunny 22 -5.6 0 -17.8 38 38 E 6 9 30.48 1032 10 16 0.00 0.00
3:53 pm 15:53 Sunny 22 -5.6 0 -17.8 38 38 ENE 3 6 30.47 1032 10 16 0.00 0.00
4:53 pm 16:53 Sunny 23 -5 0 -17.8 36 36 NE 3 6 30.47 1032 10 16 0.00 0.00
5:53 pm 17:53 Clear 19 -7.2 3 -16.1 49 49 Calm 30.47 1032 10 16 0.00 0.00
6:53 pm 18:53 Clear 14 -10 6 -14.4 71 71 Calm 30.48 1032 10 16 0.00 0.00
7:53 pm 19:53 Clear 12 -11.1 4 -15.6 70 70 Calm 30.47 1032 10 16 0.00 0.00
8:53 pm 20:53 Clear 10 -12.2 5 -15 80 80 Calm 30.45 1031 10 16 0.00 0.00
9:53 pm 21:53 Clear 8 -13.3 4 -15.6 83 83 Calm 30.45 1031 10 16 0.00 0.00
10:53 pm 22:53 Clear 8 -13.3 4 -15.6 83 83 Calm 30.43 1031 9 14 0.00 0.00
11:53 pm 23:53 Clear 7 -13.9 4 -15.6 87 87 Calm 30.42 1030 10 16 0.00 0.00

Powered by AerisWeather